This is the latest recevied weather packets stored in our database for station/object KN6WGU. If no packets are shown the sender has not sent any weather packets the latest 10 day(s).
| Time | Temp. | Humidity | Pressure | Rain* | Wind** | Luminosity | Snow |
|---|---|---|---|---|---|---|---|
| 1787780844 | 26.67° C | 57% | 1006 hPa | 0 mm | - | 74 W/m² | - |
| 1787780545 | 26.67° C | 56% | 1006 hPa | 0 mm | - | 77 W/m² | - |
| 1787780240 | 26.67° C | 58% | 1005.9 hPa | 0 mm | - | 80 W/m² | - |
| 1787779936 | 26.67° C | 57% | 1006.2 hPa | 0 mm | - | 80 W/m² | - |
| 1787779636 | 26.67° C | 55% | 1006.3 hPa | 0 mm | - | 83 W/m² | - |
| 1787779330 | 26.67° C | 52% | 1006.2 hPa | 0 mm | - | 83 W/m² | - |
| 1787779029 | 26.67° C | 54% | 1006.4 hPa | 0 mm | - | 103 W/m² | - |
| 1787778720 | 26.67° C | 52% | 1006.1 hPa | 0 mm | - | 83 W/m² | - |
| 1787778416 | 26.67° C | 54% | 1006.1 hPa | 0 mm | - | 88 W/m² | - |
| 1787778110 | 26.67° C | 53% | 1006.3 hPa | 0 mm | - | 82 W/m² | - |
| 1787777809 | 27.22° C | 52% | 1006.4 hPa | 0 mm | - | 100 W/m² | - |
| 1787777506 | 26.67° C | 53% | 1006.6 hPa | 0 mm | - | 114 W/m² | - |
| 1787777200 | 26.67° C | 54% | 1006.6 hPa | 0 mm | - | 187 W/m² | - |
| 1787776899 | 27.22° C | 54% | 1006.7 hPa | 0 mm | - | 267 W/m² | - |
| 1787776599 | 27.22° C | 54% | 1006.8 hPa | 0 mm | - | 432 W/m² | - |
| 1787776298 | 27.22° C | 54% | 1006.8 hPa | 0 mm | - | 302 W/m² | - |
| 1787775996 | 27.22° C | 56% | 1006.9 hPa | 0 mm | - | 303 W/m² | - |
| 1787775692 | 27.22° C | 53% | 1006.8 hPa | 0 mm | - | 438 W/m² | - |
| 1787775390 | 27.22° C | 52% | 1006.9 hPa | 0 mm | - | 286 W/m² | - |
| 1787775084 | 27.78° C | 51% | 1007 hPa | 0 mm | - | 203 W/m² | - |
| 1787774784 | 27.78° C | 53% | 1007 hPa | 0 mm | - | 523 W/m² | - |
| 1787774479 | 27.22° C | 53% | 1006.9 hPa | 0 mm | - | 253 W/m² | - |
| 1787774178 | 27.78° C | 53% | 1007.2 hPa | 0 mm | - | 191 W/m² | - |
| 1787773876 | 27.22° C | 54% | 1007.2 hPa | 0 mm | - | 214 W/m² | - |
| 1787773575 | 26.67° C | 55% | 1007.3 hPa | 0 mm | - | 365 W/m² | - |
* Rain latest hour (hover to see other rain measurements)
** Current wind speed in m/s (hover to see current wind gust speed)